Tracking 20621 objects as of 31-Mar-2020
HD Live streaming from Space Station
objects crossing your sky now

COSMOS 535

Track COSMOS 535 now!
10-day predictions
COSMOS 535 is classified as:


NORAD ID: 6270
Int'l Code: 1972-087H
Perigee: 1,389.9 km
Apogee: 1,476.0 km
Inclination: 74.0 °
Period: 114.3 minutes
Semi major axis: 7803 km
RCS: 0.7336 m2 (medium)
Launch date: November 1, 1972
Source: Commonwealth of Independent States (former USSR) (CIS)
Launch site: PLESETSK MISSILE AND SPACE COMPLEX (PKMTR)
aabbcc
Your satellite tracking list
Your tracking list is empty




NASA's NSSDC Master Catalog

Two Line Element Set (TLE):
1  6270U 72087H   20090.53278348 -.00000018  00000-0 -63013-5 0  9999
2  6270  74.0330  80.3210 0055197 254.4851 243.0293 12.59307399179686
Source of the keplerian elements: AFSPC